STARLINK-33777, 63843

Orbit data source: Space-Track

STARLINK-33777, 63843 is a payload satellite owned by SpaceX/Seattle (US) in LEO that was launched on Wed, 07 May 2025 UTC via an FALCON 9 launch vehicle from the Air Force Eastern Test Range (AFETR). Payload-class satellites include a variety of spacecraft equipped with specific instruments for various scientific and technological missions. These include communications satellites like Starlink; space stations such as the ISS; scientific satellites like the Hubble; Earth observation satellites from companies like Planet Labs, Umbra, and HawkEye 360; GPS; miniature CubeSats for education and research; and military/defense satellites.

Loading next visibility...
Identifier
63843, 2025-093H
Orbit
LEO
Country
Flag of USUS
Related business
Manufacturer
SpaceX/Seattle
Mission
Operational Commercial Communications
Bus & Motor
STARLINK V2MO, Unknown motor
Mass
575 kg wet, ~530 kg dry
Launch date (UTC)
2025-05-07 (1 year ago)
Launch vehicle
FALCON 9
Launch site
Air Force Eastern Test Range (AFETR)
Object type
Payload
Rocket body
Debris
Shape & HBR
Box + 2 Pan, 17.7 m
Radar Cross Section
36.964 m², Large (>1 m²)

Expand to show TLE details & history
Last TLE update: 2 days ago

TLE from 2 days ago
0 STARLINK-33777
1 63843U 25093H   26162.57422876  .00014354  00000-0  52999-3 0  9995
2 63843  43.0029 267.4300 0001307 283.4671  76.6035 15.27587273 62336
Epoch: 2026-06-11T13:46Z
TLE epoch observation values (Epoch: 2026-06-11T13:46:53.364Z)
Latitude
-0.00003°
Longitude
160.79154°
Altitude
482.595 km
Speed
7.626 km/s
True Right ascension
17h 49m 43s
True Declination
0° 00' 00"
Sunlit
Object was in full shadow at epoch
Visualization orbit readout
Latitude
Unknown
Longitude
Unknown
Altitude
Unknown
Speed
Unknown
Apparent Right ascension
Unknown
Apparent Declination
Unknown
Sunlit
N/A
Visualization observer readout
Local Sidereal Time
19:43:09
Azimuth
Unknown
Elevation
Unknown
Doppler factor
Unknown
Orbital elements
Apogee altitude
485.869 km
Perigee altitude
484.075 km
Semi-major axis
6,863.109 km
Eccentricity
0.00013
Inclination
43.0029°
RAAN
267.43°
Arg. of periapsis
283.4671°
True anomaly
76.61807°
Mean anomaly
76.6035°
Eccentric anomaly
76.61079°
Mean motion
3.81735 °/min
Orbital period
94.31 mins
BSTAR
0.00052999
Loading maneuver chart data...
Computing Atmospheric mass density...
Loading historical data...
Loading historical data...
Loading historical data...
Loading historical data...
Loading historical data...
Loading historical data...
Loading historical data...

Documentation

Showing up to 5 results
|